TimeCDT,TemperatureF,Dew PointF,Humidity,Sea Level PressureIn,VisibilityMPH,Wind Direction,Wind SpeedMPH,Gust SpeedMPH,PrecipitationIn,Events,Conditions,WindDirDegrees,DateUTC
12:11 AM,37.4,35.6,93,29.98,10.0,NW,10.4,16.1,N/A,,Overcast,310,2012-11-01 05:11:00
12:31 AM,37.4,35.6,93,29.98,10.0,NW,10.4,-,N/A,,Overcast,310,2012-11-01 05:31:00
12:52 AM,37.4,35.6,93,29.98,10.0,NW,9.2,-,N/A,,Overcast,310,2012-11-01 05:52:00
1:11 AM,37.4,35.6,93,29.98,5.0,NW,9.2,-,N/A,,Drizzle,310,2012-11-01 06:11:00
1:31 AM,35.6,35.6,100,29.99,10.0,NW,9.2,-,N/A,,Overcast,320,2012-11-01 06:31:00
1:52 AM,35.6,33.8,93,29.99,10.0,NW,10.4,-,N/A,,Overcast,310,2012-11-01 06:52:00
2:11 AM,35.6,33.8,93,29.99,7.0,NW,13.8,18.4,N/A,,Overcast,310,2012-11-01 07:11:00
2:31 AM,35.6,33.8,93,29.99,10.0,NW,11.5,21.9,N/A,,Overcast,320,2012-11-01 07:31:00
2:52 AM,35.6,33.8,93,30.00,10.0,NW,12.7,19.6,N/A,,Overcast,310,2012-11-01 07:52:00
3:11 AM,35.6,32.0,87,30.00,10.0,NW,10.4,17.3,N/A,,Overcast,310,2012-11-01 08:11:00
3:31 AM,33.8,32.0,93,30.00,7.0,NW,11.5,-,N/A,Snow,Light Snow,310,2012-11-01 08:31:00
4:11 AM,33.8,30.2,87,30.00,10.0,NW,13.8,18.4,N/A,,Overcast,310,2012-11-01 09:11:00
4:31 AM,33.8,30.2,87,30.00,10.0,NW,10.4,18.4,N/A,,Overcast,310,2012-11-01 09:31:00
4:52 AM,33.8,30.2,87,30.01,10.0,NW,12.7,19.6,N/A,,Overcast,320,2012-11-01 09:52:00
5:11 AM,33.8,30.2,87,30.01,10.0,NW,13.8,18.4,N/A,,Overcast,310,2012-11-01 10:11:00
5:31 AM,33.8,28.4,81,30.01,10.0,NW,13.8,18.4,N/A,,Overcast,310,2012-11-01 10:31:00
5:52 AM,32.0,28.4,87,30.02,10.0,NW,11.5,18.4,N/A,,Overcast,310,2012-11-01 10:52:00
6:11 AM,32.0,28.4,87,30.02,10.0,NW,11.5,-,N/A,,Overcast,310,2012-11-01 11:11:00
6:31 AM,32.0,28.4,87,30.03,10.0,NW,11.5,17.3,N/A,,Overcast,320,2012-11-01 11:31:00
6:51 AM,32.0,28.4,87,30.03,10.0,NW,13.8,17.3,N/A,,Overcast,310,2012-11-01 11:51:00
7:31 AM,30.2,26.6,86,30.04,10.0,WNW,12.7,17.3,N/A,,Overcast,300,2012-11-01 12:31:00
7:51 AM,30.2,26.6,86,30.04,10.0,WNW,12.7,19.6,N/A,,Overcast,300,2012-11-01 12:51:00
8:11 AM,30.2,26.6,86,30.05,10.0,WNW,12.7,17.3,N/A,,Overcast,300,2012-11-01 13:11:00
8:31 AM,30.2,26.6,86,30.05,10.0,NW,13.8,18.4,N/A,,Overcast,310,2012-11-01 13:31:00
8:51 AM,30.2,24.8,80,30.06,10.0,NW,10.4,17.3,N/A,,Overcast,310,2012-11-01 13:51:00
9:11 AM,30.2,26.6,86,30.05,10.0,NW,10.4,-,N/A,,Overcast,310,2012-11-01 14:11:00
9:31 AM,30.2,24.8,80,30.05,10.0,WNW,10.4,-,N/A,,Overcast,300,2012-11-01 14:31:00
9:51 AM,30.2,24.8,80,30.06,10.0,NW,9.2,16.1,N/A,,Overcast,310,2012-11-01 14:51:00
10:11 AM,30.2,24.8,80,30.06,10.0,NW,10.4,17.3,N/A,,Overcast,310,2012-11-01 15:11:00
10:31 AM,32.0,24.8,75,30.06,10.0,WNW,11.5,17.3,N/A,,Overcast,300,2012-11-01 15:31:00
10:51 AM,32.0,24.8,75,30.06,10.0,NW,9.2,-,N/A,,Overcast,320,2012-11-01 15:51:00
11:11 AM,32.0,24.8,75,30.06,10.0,NW,10.4,17.3,N/A,,Overcast,310,2012-11-01 16:11:00
11:31 AM,32.0,24.8,75,30.06,10.0,NW,12.7,-,N/A,,Overcast,310,2012-11-01 16:31:00
12:11 PM,33.8,24.8,70,30.07,10.0,NNW,12.7,17.3,N/A,,Overcast,330,2012-11-01 17:11:00
12:32 PM,32.0,24.8,75,30.07,10.0,NW,10.4,16.1,N/A,,Overcast,320,2012-11-01 17:32:00
12:51 PM,32.0,24.8,75,30.07,10.0,NW,12.7,18.4,N/A,,Overcast,310,2012-11-01 17:51:00
1:11 PM,32.0,24.8,75,30.06,10.0,NNW,10.4,17.3,N/A,,Overcast,330,2012-11-01 18:11:00
1:32 PM,32.0,24.8,75,30.06,10.0,NW,10.4,-,N/A,,Overcast,320,2012-11-01 18:32:00
1:51 PM,32.0,24.8,75,30.06,10.0,NNW,9.2,16.1,N/A,,Overcast,340,2012-11-01 18:51:00
2:11 PM,32.0,24.8,75,30.06,10.0,NW,6.9,-,N/A,,Overcast,320,2012-11-01 19:11:00
2:31 PM,32.0,24.8,75,30.06,10.0,NW,10.4,-,N/A,,Overcast,320,2012-11-01 19:31:00
2:51 PM,32.0,24.8,75,30.06,10.0,NNW,6.9,-,N/A,,Overcast,330,2012-11-01 19:51:00
3:11 PM,32.0,24.8,75,30.06,10.0,NW,9.2,-,N/A,,Overcast,310,2012-11-01 20:11:00
3:31 PM,30.2,24.8,80,30.06,10.0,NNW,9.2,-,N/A,,Overcast,330,2012-11-01 20:31:00
3:51 PM,30.2,24.8,80,30.07,10.0,NW,8.1,-,N/A,,Overcast,320,2012-11-01 20:51:00
4:11 PM,30.2,24.8,80,30.08,10.0,NNW,4.6,-,N/A,,Overcast,330,2012-11-01 21:11:00
4:31 PM,30.2,24.8,80,30.09,10.0,NW,8.1,-,N/A,,Overcast,320,2012-11-01 21:31:00
4:51 PM,30.2,24.8,80,30.09,10.0,NW,8.1,-,N/A,,Overcast,320,2012-11-01 21:51:00
5:11 PM,30.2,24.8,80,30.09,10.0,NW,8.1,-,N/A,,Overcast,320,2012-11-01 22:11:00
5:31 PM,30.2,24.8,80,30.09,10.0,NNW,9.2,-,N/A,,Overcast,330,2012-11-01 22:31:00
5:51 PM,28.4,24.8,86,30.08,10.0,North,6.9,-,N/A,,Overcast,360,2012-11-01 22:51:00
6:11 PM,28.4,24.8,86,30.09,10.0,North,5.8,-,N/A,,Overcast,350,2012-11-01 23:11:00
6:31 PM,28.4,24.8,86,30.09,10.0,North,5.8,-,N/A,,Overcast,360,2012-11-01 23:31:00
6:51 PM,28.4,24.8,86,30.09,10.0,North,8.1,-,N/A,,Overcast,350,2012-11-01 23:51:00
7:11 PM,28.4,24.8,86,30.11,10.0,North,8.1,-,N/A,,Overcast,360,2012-11-02 00:11:00
7:31 PM,28.4,24.8,86,30.11,10.0,North,8.1,-,N/A,,Overcast,360,2012-11-02 00:31:00
7:51 PM,28.4,24.8,86,30.11,10.0,North,6.9,-,N/A,,Overcast,350,2012-11-02 00:51:00
8:11 PM,28.4,24.8,86,30.11,10.0,North,8.1,-,N/A,,Overcast,360,2012-11-02 01:11:00
8:31 PM,28.4,24.8,86,30.11,10.0,North,8.1,-,N/A,,Overcast,360,2012-11-02 01:31:00
8:51 PM,28.4,24.8,86,30.11,10.0,NNW,4.6,-,N/A,,Overcast,340,2012-11-02 01:51:00
9:11 PM,28.4,24.8,86,30.11,10.0,NNE,9.2,-,N/A,,Overcast,20,2012-11-02 02:11:00
9:31 PM,28.4,24.8,86,30.11,10.0,NNE,5.8,-,N/A,,Overcast,30,2012-11-02 02:31:00
9:51 PM,30.2,24.8,80,30.11,10.0,North,8.1,-,N/A,,Overcast,350,2012-11-02 02:51:00
10:12 PM,30.2,24.8,80,30.11,10.0,North,8.1,-,N/A,,Overcast,10,2012-11-02 03:12:00
10:31 PM,28.4,24.8,86,30.11,10.0,NNE,6.9,-,N/A,,Overcast,20,2012-11-02 03:31:00
10:51 PM,28.4,24.8,86,30.12,10.0,North,6.9,-,N/A,,Overcast,350,2012-11-02 03:51:00
11:11 PM,28.4,24.8,86,30.12,10.0,NNE,5.8,-,N/A,,Overcast,30,2012-11-02 04:11:00
11:31 PM,28.4,24.8,86,30.11,10.0,NNE,5.8,-,N/A,,Overcast,20,2012-11-02 04:31:00
11:51 PM,28.4,24.8,86,30.11,10.0,NE,6.9,-,N/A,,Overcast,40,2012-11-02 04:51:00